,,PressureMeas_1m,,PRMeasQMR101_1,,RHStat155_1m_1,,SRMeasQMS101R_1m,,TAStat155_1m_1,,GenWind_1,,GenWind_1,
2018-05-04, 07:00:06,VALID,918.381,VALID,0.0,VALID,95.811,VALID,54.414,VALID,20.17,VALID,119.0,VALID,2.039,
2018-05-04, 07:01:06,VALID,918.416,VALID,0.0,VALID,95.731,VALID,49.87,VALID,20.175,VALID,111.0,VALID,1.566,
2018-05-04, 07:02:06,VALID,918.427,VALID,0.0,VALID,95.78,VALID,89.747,VALID,20.178,VALID,118.0,VALID,1.136,
2018-05-04, 07:03:06,VALID,918.451,VALID,0.0,VALID,95.849,VALID,118.678,VALID,20.199,VALID,122.0,VALID,1.143,
2018-05-04, 07:04:06,VALID,918.46,VALID,0.0,VALID,96.023,VALID,128.443,VALID,20.249,VALID,133.0,VALID,1.249,
2018-05-04, 07:05:06,VALID,918.48,VALID,0.0,VALID,95.977,VALID,135.405,VALID,20.325,VALID,132.0,VALID,1.2,
2018-05-04, 07:06:06,VALID,918.488,VALID,0.0,VALID,95.668,VALID,140.744,VALID,20.405,VALID,111.0,VALID,0.989,
2018-05-04, 07:07:06,VALID,918.487,VALID,0.0,VALID,95.445,VALID,143.246,VALID,20.491,VALID,118.0,VALID,1.8,
2018-05-04, 07:08:06,VALID,918.502,VALID,0.0,VALID,94.981,VALID,147.408,VALID,20.578,VALID,133.0,VALID,1.778,
2018-05-04, 07:09:06,VALID,918.509,VALID,0.0,VALID,94.682,VALID,151.536,VALID,20.685,VALID,138.0,VALID,1.373,
2018-05-04, 07:10:06,VALID,918.52,VALID,0.0,VALID,94.367,VALID,153.717,VALID,20.761,VALID,169.0,VALID,1.065,
2018-05-04, 07:11:06,VALID,918.512,VALID,0.0,VALID,94.014,VALID,154.983,VALID,20.795,VALID,120.0,VALID,0.779,
2018-05-04, 07:12:06,VALID,918.535,VALID,0.0,VALID,93.716,VALID,154.785,VALID,20.803,VALID,129.0,VALID,0.415,
2018-05-04, 07:13:06,VALID,918.535,VALID,0.0,VALID,94.056,VALID,159.36,VALID,20.876,VALID,119.0,VALID,0.67,
2018-05-04, 07:14:06,VALID,918.544,VALID,0.0,VALID,93.723,VALID,163.257,VALID,20.912,VALID,160.0,VALID,0.533,
2018-05-04, 07:15:06,VALID,918.543,VALID,0.0,VALID,93.461,VALID,146.033,VALID,20.913,VALID,130.0,VALID,0.296,
2018-05-04, 07:16:06,VALID,918.548,VALID,0.0,VALID,93.255,VALID,115.506,VALID,20.941,VALID,136.0,VALID,0.687,
2018-05-04, 07:17:06,VALID,918.548,VALID,0.0,VALID,93.209,VALID,139.725,VALID,20.969,VALID,130.0,VALID,1.148,
2018-05-04, 07:18:06,VALID,918.555,VALID,0.0,VALID,92.969,VALID,163.334,VALID,20.91,VALID,121.0,VALID,1.894,
2018-05-04, 07:19:06,VALID,918.56,VALID,0.0,VALID,93.345,VALID,171.358,VALID,20.823,VALID,116.0,VALID,2.159,
2018-05-04, 07:20:06,VALID,918.568,VALID,0.0,VALID,93.63,VALID,85.158,VALID,20.776,VALID,120.0,VALID,1.466,
2018-05-04, 07:21:06,VALID,918.577,VALID,0.0,VALID,94.1,VALID,181.61,VALID,20.771,VALID,120.0,VALID,1.85,
2018-05-04, 07:22:06,VALID,918.599,VALID,0.0,VALID,94.389,VALID,207.61,VALID,20.821,VALID,119.0,VALID,1.442,
2018-05-04, 07:23:06,VALID,918.618,VALID,0.0,VALID,94.288,VALID,208.498,VALID,20.908,VALID,121.0,VALID,1.572,
2018-05-04, 07:24:06,VALID,918.641,VALID,0.0,VALID,93.506,VALID,156.813,VALID,20.989,VALID,114.0,VALID,2.039,
2018-05-04, 07:25:06,VALID,918.665,VALID,0.0,VALID,93.549,VALID,113.767,VALID,21.073,VALID,116.0,VALID,1.841,
2018-05-04, 07:26:06,VALID,918.706,VALID,0.0,VALID,93.163,VALID,126.222,VALID,21.089,VALID,123.0,VALID,2.034,
2018-05-04, 07:27:06,VALID,918.74,VALID,0.0,VALID,92.889,VALID,242.781,VALID,21.111,VALID,122.0,VALID,1.923,
2018-05-04, 07:28:06,VALID,918.763,VALID,0.0,VALID,93.49,VALID,265.233,VALID,21.197,VALID,120.0,VALID,1.85,
2018-05-04, 07:29:06,VALID,918.784,VALID,0.0,VALID,93.25,VALID,231.923,VALID,21.307,VALID,126.0,VALID,1.677,
2018-05-04, 07:30:06,VALID,918.812,VALID,0.0,VALID,92.824,VALID,188.238,VALID,21.418,VALID,126.0,VALID,1.695,
2018-05-04, 07:31:06,VALID,918.821,VALID,0.0,VALID,92.159,VALID,151.294,VALID,21.469,VALID,121.0,VALID,1.586,
2018-05-04, 07:32:06,VALID,918.82,VALID,0.0,VALID,91.778,VALID,141.175,VALID,21.451,VALID,131.0,VALID,1.371,
2018-05-04, 07:33:06,VALID,918.855,VALID,0.0,VALID,91.569,VALID,140.536,VALID,21.422,VALID,129.0,VALID,1.554,
2018-05-04, 07:34:06,VALID,918.858,VALID,0.0,VALID,91.825,VALID,149.089,VALID,21.387,VALID,141.0,VALID,0.883,
2018-05-04, 07:35:06,VALID,918.882,VALID,0.0,VALID,92.109,VALID,188.64,VALID,21.406,VALID,150.0,VALID,0.749,
2018-05-04, 07:36:06,VALID,918.893,VALID,0.0,VALID,91.751,VALID,252.981,VALID,21.431,VALID,127.0,VALID,1.722,
2018-05-04, 07:37:06,VALID,918.911,VALID,0.0,VALID,91.485,VALID,262.528,VALID,21.434,VALID,135.0,VALID,1.093,
2018-05-04, 07:38:06,VALID,918.908,VALID,0.0,VALID,91.575,VALID,205.013,VALID,21.483,VALID,129.0,VALID,1.079,
2018-05-04, 07:39:06,VALID,918.934,VALID,0.0,VALID,91.58,VALID,208.437,VALID,21.516,VALID,128.0,VALID,1.175,
2018-05-04, 07:40:06,VALID,918.935,VALID,0.0,VALID,91.918,VALID,241.162,VALID,21.579,VALID,126.0,VALID,0.679,
2018-05-04, 07:41:06,VALID,918.945,VALID,0.0,VALID,91.602,VALID,209.935,VALID,21.692,VALID,132.0,VALID,0.946,
2018-05-04, 07:42:06,VALID,918.962,VALID,0.0,VALID,91.394,VALID,196.167,VALID,21.805,VALID,133.0,VALID,0.929,
2018-05-04, 07:43:06,VALID,918.978,VALID,0.0,VALID,90.779,VALID,199.746,VALID,21.911,VALID,126.0,VALID,1.109,
2018-05-04, 07:44:06,VALID,918.982,VALID,0.0,VALID,90.634,VALID,210.337,VALID,22.024,VALID,131.0,VALID,1.245,
2018-05-04, 07:45:06,VALID,919.01,VALID,0.0,VALID,90.326,VALID,214.271,VALID,22.093,VALID,147.0,VALID,1.041,
2018-05-04, 07:46:06,VALID,919.022,VALID,0.0,VALID,90.145,VALID,194.265,VALID,22.102,VALID,138.0,VALID,1.244,
2018-05-04, 07:47:06,VALID,919.035,VALID,0.0,VALID,89.929,VALID,191.11,VALID,22.086,VALID,127.0,VALID,2.157,
2018-05-04, 07:48:06,VALID,919.049,VALID,0.0,VALID,89.41,VALID,183.391,VALID,22.148,VALID,119.0,VALID,2.225,
2018-05-04, 07:49:06,VALID,919.049,VALID,0.0,VALID,89.237,VALID,219.708,VALID,22.169,VALID,128.0,VALID,1.573,
2018-05-04, 07:50:06,VALID,919.037,VALID,0.0,VALID,89.543,VALID,237.268,VALID,22.193,VALID,125.0,VALID,1.459,
2018-05-04, 07:51:06,VALID,919.036,VALID,0.0,VALID,88.649,VALID,319.134,VALID,22.279,VALID,106.0,VALID,2.264,
2018-05-04, 07:52:06,VALID,919.033,VALID,0.0,VALID,88.178,VALID,356.527,VALID,22.479,VALID,109.0,VALID,2.153,
2018-05-04, 07:53:06,VALID,919.024,VALID,0.0,VALID,88.202,VALID,357.055,VALID,22.683,VALID,116.0,VALID,2.219,
2018-05-04, 07:54:06,VALID,919.028,VALID,0.0,VALID,86.902,VALID,343.34,VALID,22.711,VALID,123.0,VALID,2.466,
2018-05-04, 07:55:06,VALID,918.991,VALID,0.0,VALID,87.314,VALID,367.34,VALID,22.733,VALID,126.0,VALID,2.255,
2018-05-04, 07:56:06,VALID,919.004,VALID,0.0,VALID,87.079,VALID,372.994,VALID,22.778,VALID,121.0,VALID,2.536,
2018-05-04, 07:57:06,VALID,919.004,VALID,0.0,VALID,86.74,VALID,373.863,VALID,22.73,VALID,124.0,VALID,2.873,
2018-05-04, 07:58:06,VALID,919.001,VALID,0.0,VALID,87.114,VALID,370.858,VALID,22.641,VALID,132.0,VALID,2.013,
2018-05-04, 07:59:06,VALID,919.008,VALID,0.0,VALID,87.646,VALID,368.228,VALID,22.639,VALID,128.0,VALID,1.875,
2018-05-04, 08:00:06,VALID,919.006,VALID,0.0,VALID,87.811,VALID,365.647,VALID,22.68,VALID,129.0,VALID,1.521,
2018-05-04, 08:01:06,VALID,919.032,VALID,0.0,VALID,87.211,VALID,373.529,VALID,22.727,VALID,129.0,VALID,1.756,
2018-05-04, 08:02:06,VALID,919.033,VALID,0.0,VALID,86.886,VALID,377.799,VALID,22.716,VALID,126.0,VALID,1.991,
2018-05-04, 08:03:06,VALID,919.043,VALID,0.0,VALID,86.707,VALID,382.593,VALID,22.853,VALID,126.0,VALID,1.949,
2018-05-04, 08:04:06,VALID,919.041,VALID,0.0,VALID,85.699,VALID,382.222,VALID,22.859,VALID,123.0,VALID,2.357,
2018-05-04, 08:05:06,VALID,919.036,VALID,0.0,VALID,85.271,VALID,384.798,VALID,22.733,VALID,121.0,VALID,2.286,
2018-05-04, 08:06:06,VALID,919.028,VALID,0.0,VALID,86.968,VALID,386.62,VALID,22.764,VALID,120.0,VALID,2.079,
2018-05-04, 08:07:06,VALID,919.019,VALID,0.0,VALID,86.397,VALID,388.096,VALID,22.953,VALID,107.0,VALID,2.297,
2018-05-04, 08:08:06,VALID,919.013,VALID,0.0,VALID,84.121,VALID,388.591,VALID,23.196,VALID,108.0,VALID,1.819,
2018-05-04, 08:09:06,VALID,919.026,VALID,0.0,VALID,84.269,VALID,392.795,VALID,23.384,VALID,107.0,VALID,2.431,
2018-05-04, 08:10:06,VALID,919.018,VALID,0.0,VALID,85.705,VALID,394.38,VALID,23.451,VALID,105.0,VALID,2.396,
2018-05-04, 08:11:06,VALID,919.015,VALID,0.0,VALID,84.393,VALID,395.624,VALID,23.436,VALID,107.0,VALID,2.111,
2018-05-04, 08:12:06,VALID,919.015,VALID,0.0,VALID,84.851,VALID,403.583,VALID,23.498,VALID,124.0,VALID,2.107,
2018-05-04, 08:13:06,VALID,919.04,VALID,0.0,VALID,83.722,VALID,405.032,VALID,23.485,VALID,115.0,VALID,2.45,
2018-05-04, 08:14:06,VALID,919.051,VALID,0.0,VALID,85.12,VALID,416.816,VALID,23.394,VALID,114.0,VALID,1.647,
2018-05-04, 08:15:06,VALID,919.076,VALID,0.0,VALID,84.528,VALID,428.916,VALID,23.471,VALID,129.0,VALID,2.373,
2018-05-04, 08:16:06,VALID,919.087,VALID,0.0,VALID,83.672,VALID,429.931,VALID,23.55,VALID,126.0,VALID,2.337,
2018-05-04, 08:17:06,VALID,919.105,VALID,0.0,VALID,83.805,VALID,434.326,VALID,23.501,VALID,126.0,VALID,1.877,
2018-05-04, 08:18:06,VALID,919.108,VALID,0.0,VALID,84.269,VALID,395.968,VALID,23.568,VALID,147.0,VALID,1.586,
2018-05-04, 08:19:06,VALID,919.128,VALID,0.0,VALID,83.025,VALID,428.684,VALID,23.706,VALID,135.0,VALID,1.804,
2018-05-04, 08:20:06,VALID,919.155,VALID,0.0,VALID,81.023,VALID,435.122,VALID,23.885,VALID,111.0,VALID,1.971,
2018-05-04, 08:21:06,VALID,919.179,VALID,0.0,VALID,82.411,VALID,440.323,VALID,24.044,VALID,119.0,VALID,1.827,
2018-05-04, 08:22:06,VALID,919.198,VALID,0.0,VALID,81.498,VALID,442.516,VALID,24.055,VALID,118.0,VALID,2.112,
2018-05-04, 08:23:06,VALID,919.218,VALID,0.0,VALID,81.698,VALID,461.658,VALID,23.872,VALID,101.0,VALID,1.993,
2018-05-04, 08:24:06,VALID,919.238,VALID,0.0,VALID,81.654,VALID,483.326,VALID,23.806,VALID,109.0,VALID,1.633,
2018-05-04, 08:25:06,VALID,919.252,VALID,0.0,VALID,81.574,VALID,286.549,VALID,23.817,VALID,116.0,VALID,0.375,
2018-05-04, 08:26:06,VALID,919.255,VALID,0.0,VALID,82.767,VALID,392.123,VALID,23.788,VALID,109.0,VALID,0.0,
2018-05-04, 08:27:06,VALID,919.263,VALID,0.0,VALID,83.308,VALID,486.314,VALID,23.707,VALID,115.0,VALID,0.0,
2018-05-04, 08:28:06,VALID,919.264,VALID,0.0,VALID,83.818,VALID,506.135,VALID,23.809,VALID,119.0,VALID,0.0,
2018-05-04, 08:29:06,VALID,919.241,VALID,0.0,VALID,82.868,VALID,527.97,VALID,24.021,VALID,124.0,VALID,0.0,
2018-05-04, 08:30:06,VALID,919.229,VALID,0.0,VALID,81.756,VALID,482.764,VALID,24.06,VALID,121.0,VALID,0.0,
2018-05-04, 08:31:06,VALID,919.218,VALID,0.0,VALID,82.089,VALID,523.157,VALID,23.968,VALID,123.0,VALID,0.0,
2018-05-04, 08:32:06,VALID,919.197,VALID,0.0,VALID,82.721,VALID,500.744,VALID,24.013,VALID,115.0,VALID,0.0,
2018-05-04, 08:33:06,VALID,919.173,VALID,0.0,VALID,81.114,VALID,493.45,VALID,24.139,VALID,131.0,VALID,0.0,
2018-05-04, 08:34:06,VALID,919.197,VALID,0.0,VALID,81.18,VALID,492.737,VALID,24.288,VALID,98.0,VALID,0.0,
2018-05-04, 08:35:06,VALID,919.198,VALID,0.0,VALID,80.33,VALID,419.24,VALID,24.273,VALID,82.0,VALID,0.0,
2018-05-04, 08:36:06,VALID,919.205,VALID,0.0,VALID,80.02,VALID,500.283,VALID,24.212,VALID,89.0,VALID,0.0,
2018-05-04, 08:37:06,VALID,919.225,VALID,0.0,VALID,81.236,VALID,523.814,VALID,24.33,VALID,117.0,VALID,0.0,
2018-05-04, 08:38:06,VALID,919.245,VALID,0.0,VALID,79.987,VALID,529.363,VALID,24.523,VALID,106.0,VALID,0.0,
2018-05-04, 08:39:06,VALID,919.241,VALID,0.0,VALID,79.598,VALID,519.729,VALID,24.672,VALID,92.0,VALID,0.0,
2018-05-04, 08:40:06,VALID,919.252,VALID,0.0,VALID,78.03,VALID,507.505,VALID,24.876,VALID,141.0,VALID,0.0,
2018-05-04, 08:41:06,VALID,919.262,VALID,0.0,VALID,77.919,VALID,452.399,VALID,25.048,VALID,115.0,VALID,0.0,
2018-05-04, 08:42:06,VALID,919.27,VALID,0.0,VALID,77.052,VALID,517.778,VALID,25.053,VALID,114.0,VALID,0.0,
2018-05-04, 08:43:06,VALID,919.284,VALID,0.0,VALID,77.539,VALID,505.549,VALID,24.893,VALID,118.0,VALID,0.0,
2018-05-04, 08:44:06,VALID,919.297,VALID,0.0,VALID,77.099,VALID,522.592,VALID,24.829,VALID,122.0,VALID,0.0,
2018-05-04, 08:45:06,VALID,919.321,VALID,0.0,VALID,76.613,VALID,540.263,VALID,24.987,VALID,120.0,VALID,0.0,
2018-05-04, 08:46:06,VALID,919.333,VALID,0.0,VALID,76.342,VALID,356.668,VALID,24.977,VALID,109.0,VALID,0.0,
2018-05-04, 08:47:06,VALID,919.331,VALID,0.0,VALID,76.678,VALID,452.736,VALID,24.907,VALID,124.0,VALID,0.0,
2018-05-04, 08:48:06,VALID,919.346,VALID,0.0,VALID,77.119,VALID,567.108,VALID,24.964,VALID,117.0,VALID,0.0,
2018-05-04, 08:49:06,VALID,919.361,VALID,0.0,VALID,76.984,VALID,463.982,VALID,24.78,VALID,104.0,VALID,0.0,
2018-05-04, 08:50:06,VALID,919.347,VALID,0.0,VALID,78.795,VALID,550.07,VALID,24.585,INVALID,360.0,VALID,0.0,
2018-05-04, 08:51:06,VALID,919.364,VALID,0.0,VALID,80.068,VALID,532.649,VALID,24.687,VALID,85.0,VALID,0.0,
2018-05-04, 08:52:06,VALID,919.369,VALID,0.0,VALID,79.501,VALID,546.437,VALID,24.929,VALID,76.0,VALID,0.0,
2018-05-04, 08:53:06,VALID,919.353,VALID,0.0,VALID,78.044,VALID,541.961,VALID,25.269,VALID,93.0,VALID,0.0,
2018-05-04, 08:54:06,VALID,919.374,VALID,0.0,VALID,76.412,VALID,526.6,VALID,25.416,VALID,107.0,VALID,0.0,
2018-05-04, 08:55:06,VALID,919.383,VALID,0.0,VALID,76.935,VALID,529.328,VALID,25.358,VALID,105.0,VALID,0.0,
2018-05-04, 08:56:06,VALID,919.395,VALID,0.0,VALID,76.231,VALID,286.677,VALID,25.12,VALID,105.0,VALID,0.0,
2018-05-04, 08:57:06,VALID,919.395,VALID,0.0,VALID,79.066,VALID,357.384,VALID,24.938,VALID,82.0,VALID,0.0,
2018-05-04, 08:58:06,VALID,919.383,VALID,0.0,VALID,79.599,VALID,629.531,VALID,24.951,INVALID,360.0,VALID,0.0,
2018-05-04, 08:59:06,VALID,919.402,VALID,0.0,VALID,76.826,VALID,612.426,VALID,25.064,VALID,96.0,VALID,0.0,
2018-05-04, 09:00:06,VALID,919.403,VALID,0.0,VALID,77.225,VALID,598.462,VALID,25.021,VALID,87.0,VALID,0.0,
2018-05-04, 09:01:06,VALID,919.399,VALID,0.0,VALID,77.283,VALID,604.565,VALID,24.968,VALID,76.0,VALID,0.0,
2018-05-04, 09:02:06,VALID,919.415,VALID,0.0,VALID,76.644,VALID,578.489,VALID,24.841,INVALID,360.0,VALID,0.0,
2018-05-04, 09:03:06,VALID,919.406,VALID,0.0,VALID,79.499,VALID,223.926,VALID,24.754,VALID,76.0,VALID,0.0,
2018-05-04, 09:04:06,VALID,919.406,VALID,0.0,VALID,79.66,VALID,212.861,VALID,24.78,VALID,105.0,VALID,0.0,
2018-05-04, 09:05:06,VALID,919.385,VALID,0.0,VALID,78.715,VALID,228.989,VALID,24.78,VALID,102.0,VALID,0.0,
2018-05-04, 09:06:06,VALID,919.394,VALID,0.0,VALID,79.334,VALID,467.509,VALID,24.782,VALID,95.0,VALID,0.0,
2018-05-04, 09:07:06,VALID,919.376,VALID,0.0,VALID,77.731,VALID,474.592,VALID,24.774,VALID,97.0,VALID,0.0,
2018-05-04, 09:08:06,VALID,919.392,VALID,0.0,VALID,77.736,VALID,603.876,VALID,24.71,VALID,83.0,VALID,0.0,
2018-05-04, 09:09:06,VALID,919.397,VALID,0.0,VALID,77.742,VALID,623.586,VALID,24.564,VALID,92.0,VALID,0.0,
2018-05-04, 09:10:06,VALID,919.41,VALID,0.0,VALID,78.594,VALID,574.048,VALID,24.603,VALID,78.0,VALID,0.0,
2018-05-04, 09:11:06,VALID,919.405,VALID,0.0,VALID,78.594,VALID,659.457,VALID,24.811,VALID,77.0,VALID,0.0,
2018-05-04, 09:12:06,VALID,919.43,VALID,0.0,VALID,79.921,VALID,532.286,VALID,24.996,VALID,87.0,VALID,0.0,
2018-05-04, 09:13:06,VALID,919.44,VALID,0.0,VALID,78.34,VALID,237.753,VALID,25.086,VALID,109.0,VALID,0.0,
2018-05-04, 09:14:06,VALID,919.445,VALID,0.0,VALID,78.009,VALID,462.626,VALID,24.996,VALID,106.0,VALID,0.0,
2018-05-04, 09:15:06,VALID,919.447,VALID,0.0,VALID,77.615,VALID,433.185,VALID,24.984,VALID,105.0,VALID,0.0,
2018-05-04, 09:16:06,VALID,919.455,VALID,0.0,VALID,77.028,VALID,228.254,VALID,24.958,VALID,102.0,VALID,0.0,
2018-05-04, 09:17:06,VALID,919.471,VALID,0.0,VALID,78.195,VALID,211.283,VALID,24.901,VALID,88.0,VALID,0.0,
2018-05-04, 09:18:06,VALID,919.479,VALID,0.0,VALID,77.572,VALID,200.22,VALID,24.779,VALID,81.0,VALID,0.0,
2018-05-04, 09:19:06,VALID,919.502,VALID,0.0,VALID,79.633,VALID,199.052,VALID,24.677,VALID,99.0,VALID,0.0,
2018-05-04, 09:20:06,VALID,919.52,VALID,0.0,VALID,77.727,VALID,206.312,VALID,24.586,VALID,97.0,VALID,0.0,
2018-05-04, 09:21:06,VALID,919.53,VALID,0.0,VALID,77.887,VALID,215.35,VALID,24.498,VALID,103.0,VALID,0.0,
2018-05-04, 09:22:06,VALID,919.541,VALID,0.0,VALID,77.285,VALID,226.166,VALID,24.437,VALID,107.0,VALID,0.0,
2018-05-04, 09:23:06,VALID,919.543,VALID,0.0,VALID,79.194,VALID,242.305,VALID,24.442,VALID,98.0,VALID,0.0,
2018-05-04, 09:24:06,VALID,919.539,VALID,0.0,VALID,78.385,VALID,247.475,VALID,24.51,VALID,113.0,VALID,0.0,
2018-05-04, 09:25:06,VALID,919.539,VALID,0.0,VALID,79.607,VALID,246.655,VALID,24.615,INVALID,360.0,VALID,0.0,
2018-05-04, 09:26:06,VALID,919.529,VALID,0.0,VALID,81.498,VALID,229.039,VALID,24.827,INVALID,360.0,VALID,0.0,
2018-05-04, 09:27:06,VALID,919.53,VALID,0.0,VALID,78.624,VALID,207.193,VALID,24.979,VALID,102.0,VALID,0.0,
2018-05-04, 09:28:06,VALID,919.531,VALID,0.0,VALID,78.054,VALID,202.465,VALID,25.103,INVALID,360.0,VALID,0.0,
2018-05-04, 09:29:06,VALID,919.513,VALID,0.0,VALID,76.485,VALID,229.481,VALID,25.084,VALID,129.0,VALID,0.0,
2018-05-04, 09:30:06,VALID,919.518,VALID,0.0,VALID,76.741,VALID,228.225,VALID,25.063,VALID,95.0,VALID,0.0,
2018-05-04, 09:31:06,VALID,919.525,VALID,0.0,VALID,78.086,VALID,220.452,VALID,25.063,VALID,103.0,VALID,0.0,
2018-05-04, 09:32:06,VALID,919.519,VALID,0.0,VALID,76.932,VALID,207.689,VALID,25.014,VALID,92.0,VALID,0.0,
2018-05-04, 09:33:06,VALID,919.527,VALID,0.0,VALID,76.253,VALID,200.486,VALID,24.913,VALID,97.0,VALID,0.0,
2018-05-04, 09:34:06,VALID,919.533,VALID,0.0,VALID,76.639,VALID,208.885,VALID,24.897,VALID,103.0,VALID,0.0,
2018-05-04, 09:35:06,VALID,919.507,VALID,0.0,VALID,76.215,VALID,342.567,VALID,24.876,VALID,86.0,VALID,0.0,
2018-05-04, 09:36:06,VALID,919.5,VALID,0.0,VALID,77.352,VALID,365.912,VALID,24.879,VALID,80.0,VALID,0.0,
2018-05-04, 09:37:06,VALID,919.481,VALID,0.0,VALID,77.671,VALID,235.689,VALID,24.831,VALID,72.0,VALID,0.0,
2018-05-04, 09:38:06,VALID,919.475,VALID,0.0,VALID,79.614,VALID,207.517,VALID,24.81,VALID,74.0,VALID,0.0,
2018-05-04, 09:39:06,VALID,919.466,VALID,0.0,VALID,79.765,VALID,214.514,VALID,24.863,VALID,110.0,VALID,0.0,
2018-05-04, 09:40:06,VALID,919.465,VALID,0.0,VALID,78.846,VALID,259.126,VALID,24.945,VALID,105.0,VALID,0.0,
2018-05-04, 09:41:06,VALID,919.471,VALID,0.0,VALID,77.961,VALID,387.056,VALID,25.003,VALID,107.0,VALID,0.0,
2018-05-04, 09:42:06,VALID,919.488,VALID,0.0,VALID,76.244,VALID,475.082,VALID,25.019,INVALID,360.0,VALID,0.0,
2018-05-04, 09:43:06,VALID,919.479,VALID,0.0,VALID,76.301,VALID,636.043,VALID,25.008,INVALID,360.0,VALID,0.0,
2018-05-04, 09:44:06,VALID,919.477,VALID,0.0,VALID,78.09,VALID,603.81,VALID,25.036,INVALID,360.0,VALID,0.0,
2018-05-04, 09:45:06,VALID,919.491,VALID,0.0,VALID,77.883,VALID,440.199,VALID,25.079,INVALID,360.0,VALID,0.0,
2018-05-04, 09:46:06,VALID,919.485,VALID,0.0,VALID,77.431,VALID,714.272,VALID,25.15,VALID,85.0,VALID,0.0,
2018-05-04, 09:47:06,VALID,919.484,VALID,0.0,VALID,76.384,VALID,646.809,VALID,25.345,VALID,99.0,VALID,0.0,
2018-05-04, 09:48:06,VALID,919.483,VALID,0.0,VALID,74.768,VALID,562.685,VALID,25.576,INVALID,360.0,VALID,0.0,
2018-05-04, 09:49:06,VALID,919.484,VALID,0.0,VALID,74.481,VALID,582.696,VALID,25.733,INVALID,360.0,VALID,0.0,
2018-05-04, 09:50:06,VALID,919.477,VALID,0.0,VALID,73.94,VALID,252.927,VALID,25.766,INVALID,360.0,VALID,0.0,
2018-05-04, 09:51:06,VALID,919.474,VALID,0.0,VALID,74.242,VALID,209.547,VALID,25.78,VALID,131.0,VALID,0.0,
2018-05-04, 09:52:06,VALID,919.459,VALID,0.0,VALID,73.603,VALID,260.626,VALID,25.692,INVALID,360.0,VALID,0.0,
2018-05-04, 09:53:06,VALID,919.468,VALID,0.0,VALID,73.999,VALID,584.493,VALID,25.694,VALID,137.0,VALID,0.0,
2018-05-04, 09:54:06,VALID,919.463,VALID,0.0,VALID,74.637,VALID,341.171,VALID,25.764,VALID,123.0,VALID,0.0,
2018-05-04, 09:55:06,VALID,919.453,VALID,0.0,VALID,74.519,VALID,689.493,VALID,25.864,INVALID,360.0,VALID,0.0,
2018-05-04, 09:56:06,VALID,919.461,VALID,0.0,VALID,74.356,VALID,789.574,VALID,25.94,VALID,100.0,VALID,0.0,
2018-05-04, 09:57:06,VALID,919.465,VALID,0.0,VALID,75.507,VALID,763.761,VALID,26.187,INVALID,360.0,VALID,0.0,
2018-05-04, 09:58:06,VALID,919.497,VALID,0.0,VALID,73.633,VALID,370.718,VALID,26.225,VALID,91.0,VALID,0.0,
2018-05-04, 09:59:06,VALID,919.499,VALID,0.0,VALID,74.267,VALID,267.786,VALID,25.909,VALID,76.0,VALID,0.0,
2018-05-04, 10:00:06,VALID,919.518,VALID,0.0,VALID,74.629,VALID,603.28,VALID,25.684,VALID,88.0,VALID,0.0,
2018-05-04, 10:01:06,VALID,919.526,VALID,0.0,VALID,74.23,VALID,420.045,VALID,25.628,INVALID,360.0,VALID,0.0,
2018-05-04, 10:02:06,VALID,919.53,VALID,0.0,VALID,74.884,VALID,342.27,VALID,25.59,VALID,73.0,VALID,0.0,
2018-05-04, 10:03:06,VALID,919.537,VALID,0.0,VALID,75.68,VALID,503.859,VALID,25.439,VALID,77.0,VALID,0.0,
2018-05-04, 10:04:06,VALID,919.53,VALID,0.0,VALID,76.922,VALID,739.727,VALID,25.5,INVALID,360.0,VALID,0.0,
2018-05-04, 10:05:06,VALID,919.544,VALID,0.0,VALID,77.015,VALID,774.416,VALID,25.851,VALID,100.0,VALID,0.0,
2018-05-04, 10:06:06,VALID,919.567,VALID,0.0,VALID,74.532,VALID,781.309,VALID,26.076,VALID,109.0,VALID,0.0,
2018-05-04, 10:07:06,VALID,919.568,VALID,0.0,VALID,71.866,VALID,766.915,VALID,26.139,VALID,100.0,VALID,0.0,
2018-05-04, 10:08:06,VALID,919.586,VALID,0.0,VALID,71.498,VALID,726.542,VALID,25.973,VALID,91.0,VALID,0.0,
2018-05-04, 10:09:06,VALID,919.563,VALID,0.0,VALID,72.861,VALID,435.704,VALID,25.684,INVALID,360.0,VALID,0.0,
2018-05-04, 10:10:06,VALID,919.567,VALID,0.0,VALID,74.361,VALID,237.663,VALID,25.667,INVALID,360.0,VALID,0.0,
2018-05-04, 10:11:06,VALID,919.546,VALID,0.0,VALID,74.595,VALID,265.17,VALID,25.645,INVALID,360.0,VALID,0.0,
2018-05-04, 10:12:06,VALID,919.566,VALID,0.0,VALID,74.469,VALID,217.82,VALID,25.537,INVALID,360.0,VALID,0.0,
2018-05-04, 10:13:06,VALID,919.581,VALID,0.0,VALID,74.857,VALID,231.835,VALID,25.421,VALID,85.0,VALID,0.0,
2018-05-04, 10:14:06,VALID,919.599,VALID,0.0,VALID,75.464,VALID,344.026,VALID,25.297,VALID,78.0,VALID,0.0,
2018-05-04, 10:15:06,VALID,919.616,VALID,0.0,VALID,75.391,VALID,630.034,VALID,25.328,VALID,87.0,VALID,0.0,
2018-05-04, 10:16:06,VALID,919.617,VALID,0.0,VALID,73.382,VALID,613.946,VALID,25.384,VALID,107.0,VALID,0.0,
2018-05-04, 10:17:06,VALID,919.59,VALID,0.0,VALID,73.39,VALID,289.862,VALID,25.572,VALID,99.0,VALID,0.0,
2018-05-04, 10:18:06,VALID,919.603,VALID,0.0,VALID,73.837,VALID,283.344,VALID,25.771,VALID,96.0,VALID,0.0,
2018-05-04, 10:19:06,VALID,919.574,VALID,0.0,VALID,74.178,VALID,561.119,VALID,25.729,INVALID,360.0,VALID,0.0,
2018-05-04, 10:20:06,VALID,919.576,VALID,0.0,VALID,75.396,VALID,329.666,VALID,25.713,INVALID,360.0,VALID,0.0,
2018-05-04, 10:21:06,VALID,919.587,VALID,0.0,VALID,74.526,VALID,298.269,VALID,25.715,VALID,69.0,VALID,0.0,
2018-05-04, 10:22:06,VALID,919.561,VALID,0.0,VALID,74.698,VALID,283.352,VALID,25.599,INVALID,360.0,VALID,0.0,
2018-05-04, 10:23:06,VALID,919.568,VALID,0.0,VALID,76.174,VALID,321.742,VALID,25.574,VALID,88.0,VALID,0.0,
2018-05-04, 10:24:06,VALID,919.564,VALID,0.0,VALID,73.682,VALID,844.956,VALID,25.6,INVALID,360.0,VALID,0.0,
2018-05-04, 10:25:06,VALID,919.557,VALID,0.0,VALID,74.777,VALID,487.807,VALID,25.891,INVALID,360.0,VALID,0.0,
2018-05-04, 10:26:06,VALID,919.553,VALID,0.0,VALID,71.778,VALID,404.353,VALID,25.971,VALID,88.0,VALID,0.0,
2018-05-04, 10:27:06,VALID,919.565,VALID,0.0,VALID,70.782,VALID,663.43,VALID,25.879,VALID,84.0,VALID,0.0,
2018-05-04, 10:28:06,VALID,919.538,VALID,0.0,VALID,71.577,VALID,281.672,VALID,25.754,VALID,85.0,VALID,0.0,
2018-05-04, 10:29:06,VALID,919.52,VALID,0.0,VALID,72.422,VALID,425.282,VALID,25.761,VALID,98.0,VALID,0.0,
2018-05-04, 10:30:06,VALID,919.519,VALID,0.0,VALID,72.828,VALID,884.64,VALID,25.883,VALID,96.0,VALID,0.0,
2018-05-04, 10:31:06,VALID,919.516,VALID,0.0,VALID,73.474,VALID,309.163,VALID,25.969,VALID,95.0,VALID,0.0,
2018-05-04, 10:32:06,VALID,919.496,VALID,0.0,VALID,70.175,VALID,228.489,VALID,25.934,VALID,95.0,VALID,0.0,
2018-05-04, 10:33:06,VALID,919.467,VALID,0.0,VALID,72.471,VALID,237.951,VALID,25.773,INVALID,360.0,VALID,0.0,
2018-05-04, 10:34:06,VALID,919.45,VALID,0.0,VALID,73.714,VALID,324.092,VALID,25.65,INVALID,360.0,VALID,0.0,
2018-05-04, 10:35:06,VALID,919.458,VALID,0.0,VALID,74.24,VALID,522.387,VALID,25.531,VALID,78.0,VALID,0.0,
2018-05-04, 10:36:06,VALID,919.45,VALID,0.0,VALID,75.032,VALID,862.477,VALID,25.641,INVALID,360.0,VALID,0.0,
2018-05-04, 10:37:06,VALID,919.44,VALID,0.0,VALID,74.6,VALID,377.949,VALID,25.796,INVALID,360.0,VALID,0.0,